Regional Weather Roundup
Issued by NWS Binghamton, NY

Home | Current Version | Previous Version | Text Only | Print | Product List | Glossary On
Versions: 1 2 3 4 5 6 7 8 9 10 11 12 13 14 15 16 17 18 19 20 21 22 23 24 25 26 27 28 29 30 31 32 33 34 35 36 37 38 39 40 41 42 43 44 45 46 47 48 49 50
593
ASUS41 KBGM 040710
RWRBGM

REGIONAL WEATHER ROUNDUP
NATIONAL WEATHER SERVICE BINGHAMTON NY
300 AM EDT WED MAY 04 2016

Note: "fair" indicates few or no clouds below 12,000 feet with no
significant weather and/or obstructions to visibility.

* = Station(s) that does not report precipitation, such as rain,
snow, etc, also no thunder or fog.

NYZ009-015>018-022>025-036-037-044>046-055>057-062-040800
...Central New York...

CITY           SKY/WX    TMP DP  RH WIND       PRES   REMARKS
Binghamton     CLOUDY    46  45  96 CALM      29.76F
Cortland       CLOUDY    46  46 100 CALM      29.77F
Dansville      CLOUDY    48  43  82 CALM      29.76F
Elmira         CLOUDY    46  42  86 CALM      29.76F
Ithaca         CLOUDY    47  45  93 SE3       29.77F
Hamilton       CLOUDY    50  48  93 SE3       29.77F
Hornell        CLOUDY    45  43  93 CALM      29.80S
Monticello     CLOUDY    46  45  93 SE3       29.80S VSB 1/2
Norwich        CLOUDY    48  48 100 CALM      29.78S FOG
Penn Yan       CLOUDY    49  43  80 SW3       29.76F
Rome           CLOUDY    49  45  86 E6        29.79F
Sidney         CLOUDY    50  50 100 CALM      29.77F FOG
Syracuse       CLOUDY    48  42  80 SE3       29.76F
$$

PAZ038>040-043-044-047-048-072-040800
...Northeast Pennsylvania...

CITY           SKY/WX    TMP DP  RH WIND       PRES   REMARKS
Hazleton       DRIZZLE   50  50 100 CALM      29.79S
Scranton       CLOUDY    50  49  96 CALM      29.76F FOG
$$
&&
KEY
WCI = Wind Chill Index
VSB = Visibility
HX  = Heat Index
$$




USA.gov is the U.S. government's official web portal to all federal, state and local government web resources and services.